Location: Serin Observatory
(40.5200°N, 74.4500°W)
Time: 10:22:33
(UTC+00:00)

SL-8 R/B - Visible Passes

Search period start: 01 October 2016 00:00
Search period end: 11 October 2016 00:00
Orbit: 658 x 668 km, 48.4° (Epoch: 30 September)

Date Brightness Start Highest point End Pass type
(mag) Time Alt. Az. Time Alt. Az. Time Alt. Az.
01 Oct 4.3 00:27:45 10° W 00:32:25 53° NNW 00:34:18 32° NE visible
01 Oct 6.5 02:11:25 10° WNW 02:12:18 14° WNW 02:12:18 14° WNW visible
01 Oct 3.7 23:16:09 10° WSW 23:20:56 89° SSE 23:25:44 10° ENE visible
02 Oct 4.8 00:59:28 10° W 01:03:53 36° NNW 01:04:09 35° N visible
02 Oct 4.4 23:47:33 10° W 23:52:13 50° NNW 23:55:58 15° NE visible
03 Oct 5.6 01:31:13 10° WNW 01:33:56 25° NW 01:33:56 25° NW visible
04 Oct 4.9 00:19:18 10° WNW 00:23:41 35° N 00:25:41 25° NE visible
04 Oct 6.5 02:02:43 10° NW 02:03:40 15° NW 02:03:40 15° NW visible
04 Oct 4.5 23:07:21 10° W 23:11:59 49° NNW 23:16:38 10° NE visible
05 Oct 5.0 00:51:01 10° WNW 00:55:17 31° N 00:55:23 31° N visible
05 Oct 4.9 23:39:06 10° WNW 23:43:29 34° N 23:47:04 14° NE visible
06 Oct 5.6 01:22:30 10° NW 01:25:03 26° NNW 01:25:03 26° NNW visible
07 Oct 5.0 00:10:49 10° WNW 00:15:05 31° N 00:16:43 25° NE visible
07 Oct 6.4 01:53:43 10° NW 01:54:42 16° NW 01:54:42 16° NW visible
07 Oct 4.9 22:58:54 10° WNW 23:03:17 34° N 23:07:39 10° ENE visible
08 Oct 4.8 00:42:16 10° NW 00:46:22 35° N 00:46:22 35° N visible
08 Oct 4.9 23:30:36 10° WNW 23:34:53 31° N 23:38:03 16° ENE visible
09 Oct 5.4 01:13:28 10° NW 01:16:02 29° NW 01:16:02 29° NW visible
10 Oct 4.6 00:02:02 10° NW 00:06:29 36° NNE 00:07:44 31° NE visible
10 Oct 6.3 01:44:36 10° WNW 01:45:43 17° WNW 01:45:43 17° WNW visible
10 Oct 4.9 22:50:24 10° WNW 22:54:41 31° N 22:58:57 10° ENE visible
